Weather History for Kalispell, MT

Change the Weather History Date:

Thursday, August 22, 2013

  Actual Average Record
Temperature  
Mean Temperature 63 °F 63 °F  
Max Temperature 84 °F 80 °F 96 °F (1969)
Min Temperature 41 °F 46 °F 33 °F (2000)
Degree Days  
Heating Degree Days 2 4  
Month to date heating degree days 17 54  
Since 1 June heating degree days 222 347  
Since 1 July heating degree days 36 131  
Cooling Degree Days 0 1  
Month to date cooling degree days 81 53  
Year to date cooling degree days 222 136  
Since 1 June cooling degree days 222 133  
Growing Degree Days 14 (Base 50)    
Moisture  
Dew Point 41 °F    
Average Humidity 53    
Maximum Humidity 89    
Minimum Humidity 17    
Precipitation  
Precipitation 0.00 in 0.03 in 0.64 in (1992)
Month to date precipitation 0.93 0.66  
Year to date precipitation 10.25 11.28  
Snow  
Snow 0.00 in - - ()
Month to date snowfall 0.0  
Year to date snowfall 10.1  
Since 1 July snowfall 0.0  
Snow Depth 0.00 in    
Sea Level Pressure  
Sea Level Pressure 29.96 in    
Wind  
Wind Speed 2 mph (NW)    
Max Wind Speed 13 mph    
Max Gust Speed 16 mph    
Visibility 9 miles    
Events      
T = Trace of Precipitation, MM = Missing Value Source: NWS Daily Summary

Daily Weather History Graph

Daily Weather History Graph

Search for Another Location

Airport:

Trip Planner

Search our weather history database for the weather conditions in past years. The results will help you decide how hot, cold, wet, or windy it might be!

Date:

Astronomy

Aug. 22, 2013 Rise Set
Actual Time 6:41 AM MDT 8:37 PM MDT
Civil Twilight 6:07 AM MDT 9:10 PM MDT
Nautical Twilight 5:26 AM MDT 9:51 PM MDT
Astronomical Twilight 4:40 AM MDT 10:37 PM MDT
Moon 9:07 PM MDT (8/22) 8:48 AM MDT (8/22)
Length of Visible Light 15h 03m
Length of Day
13h 56m
Waning Gibbous, 96% of the Moon is Illuminated
Aug 22
Waning Gibbous
Aug 28
Last Quarter
Sep 5
New
Sep 12
First Quarter
Sep 19
Full

Hourly Weather History & Observations

Time (MDT) Temp. Windchill Dew Point Humidity Pressure Visibility Wind Dir Wind Speed Gust Speed Precip Events Conditions
12:55 AM 54.0 °F - 42.1 °F 64% 30.03 in 10.0 mi Calm Calm - N/A   Clear
1:55 AM 50.0 °F - 42.1 °F 74% 30.03 in 10.0 mi Calm Calm - N/A   Clear
2:55 AM 46.9 °F - 41.0 °F 80% 30.04 in 10.0 mi Calm Calm - N/A   Clear
3:55 AM 45.0 °F 43.5 °F 41.0 °F 86% 30.04 in 10.0 mi WNW 3.5 mph - N/A   Clear
4:55 AM 48.0 °F - 41.0 °F 77% 30.03 in 10.0 mi WNW 5.8 mph - N/A   Clear
5:55 AM 45.0 °F - 39.9 °F 82% 30.04 in 10.0 mi Calm Calm - N/A   Clear
6:55 AM 45.0 °F 43.5 °F 39.0 °F 80% 30.04 in 10.0 mi WNW 3.5 mph - N/A   Clear
7:55 AM 48.9 °F - 41.0 °F 74% 30.05 in 10.0 mi Calm Calm - N/A   Clear
8:55 AM 61.0 °F - 41.0 °F 48% 30.05 in 6.0 mi Calm Calm - N/A   Haze
9:55 AM 63.0 °F - 41.0 °F 45% 30.06 in 6.0 mi ENE 6.9 mph - N/A   Haze
10:55 AM 70.0 °F - 39.9 °F 33% 30.02 in 4.0 mi North 5.8 mph - N/A   Haze
11:55 AM 73.0 °F - 37.9 °F 28% 30.01 in 4.0 mi Variable 3.5 mph - N/A   Haze
12:55 PM 78.1 °F - 36.0 °F 22% 29.99 in 7.0 mi Variable 4.6 mph - N/A   Smoke
1:55 PM 81.0 °F - 36.0 °F 20% 29.95 in 10.0 mi East 4.6 mph - N/A   Smoke
2:55 PM 84.0 °F - 35.1 °F 17% 29.93 in 10.0 mi Calm Calm - N/A   Smoke
3:55 PM 82.0 °F - 36.0 °F 19% 29.92 in 10.0 mi South 6.9 mph - N/A   Smoke
4:55 PM 80.1 °F - 39.9 °F 24% 29.90 in 10.0 mi SSW 3.5 mph - N/A   Smoke
5:55 PM 82.9 °F - 39.0 °F 21% 29.88 in 10.0 mi Calm Calm - N/A   Smoke
6:55 PM 79.0 °F - 43.0 °F 28% 29.88 in 10.0 mi Calm Calm - N/A   Smoke
7:55 PM 73.9 °F - 46.9 °F 38% 29.86 in 10.0 mi Calm Calm - N/A   Smoke
8:55 PM 72.0 °F - 45.0 °F 38% 29.85 in 10.0 mi Calm Calm - N/A   Smoke
9:55 PM 68.0 °F - 50.0 °F 52% 29.86 in 10.0 mi Calm Calm - N/A   Smoke
10:55 PM 70.0 °F - 46.0 °F 42% 29.82 in 10.0 mi North 4.6 mph - N/A   Mostly Cloudy
11:55 PM 68.0 °F - 46.9 °F 47% 29.81 in 10.0 mi WNW 3.5 mph - N/A   Scattered Clouds